Location: Champignolles
(47.0543°N, 4.5663°E)
Time: 15:55:45
(UTC+00:00)

Cosmos 1782 - Pass Details

Date: 30 November 2020
Orbit: 537 x 551 km, 82.5° (Epoch: 27 January)

Event Time Altitude Azimuth Distance (km) Brightness Sun altitude
Rises 16:25:49 0° 143° (SE) 2,685 6.2 -5.5°
Reaches altitude 10° 16:28:42 10° 120° (ESE) 1,803 5.1 -5.9°
Maximum altitude 16:30:58 15° 85° (E) 1,519 4.5 -6.2°
Drops below altitude 10° 16:33:10 10° 51° (NE) 1,797 4.8 -6.6°
Enters shadow 16:34:35 - 37° (NE) 2,184 5.3 -6.8°
